Regional Weather Roundup
Issued by NWS

Home | Current Version | Previous Version | Text Only | Print | Product List | Glossary On
Versions: 1 2 3 4 5 6 7 8 9 10 11 12 13 14 15 16 17 18 19 20 21 22 23 24 25 26 27 28 29 30 31 32 33 34 35 36 37 38 39 40 41 42 43 44 45 46 47 48 49 50
000
ASUS45 KABQ 070110
RWRNM
WEATHER ROUNDUP FOR NEW MEXICO
NATIONAL WEATHER SERVICE ALBUQUERQUE NM
600 PM MST FRI MAR 06 2015

NOTE: "FAIR" MEANS FEW OR NO CLOUDS BELOW 12,000 FEET AGL WITH NO
       SIGNIFICANT WEATHER OR OBSTRUCTIONS TO VISION.

      THIS PRODUCT IS RELEASED AS TWO VERSIONS.  ONE VERSION NEAR
      THE TOP OF THE HOUR CONTAINING PRELIMINARY DATA FROM ALBUQUERQUE
      AND OTHER STATIONS.  A FINAL VERSION WITH ADDITIONAL DATA IS
      ISSUED ABOUT 10 MINUTES AFTER THE HOUR.

NMZ501-503-504-510>518-070200-
NORTHWEST PLATEAU/NORTHCENTRAL MOUNTAINS

CITY           SKY/WX    TMP DP  RH WIND       PRES   REMARKS
FARMINGTON     CLEAR     48  18  30 W7        30.28S
LOS ALAMOS     CLEAR     48   8  19 S5        30.31S
SANTA FE       CLEAR     50   5  16 SW5       30.27S
TAOS           CLEAR     50  10  20 CALM      30.31S
ANGEL FIRE     FAIR      36  10  33 CALM      30.34R

$$
NMZ402-403-502-505>509-070200-
WESTCENTRAL MOUNTAINS/SOUTHWEST MOUNTAINS

CITY           SKY/WX    TMP DP  RH WIND       PRES   REMARKS
GALLUP         CLEAR     49  14  24 NE16      30.28S
GRANTS         CLEAR     50   3  14 SE7       30.29R
SILVER CITY    CLEAR     55   5  13 E10       30.24S

$$
NMZ407-409-411-412-070200-
SOUTHERN DESERTS

CITY           SKY/WX    TMP DP  RH WIND       PRES   REMARKS
LORDSBURG      FAIR      59   9  13 SE13G18   30.19R
DEMING         CLEAR     58   7  13 E13       30.21R
LAS CRUCES     FAIR      58   9  14 SE3       30.23S
HOLLOMAN AFB   PTCLDY    56  20  25 NW6       30.23S
ALAMOGORDO     PTCLDY    59  10  14 N5        30.24F
T OR C         CLEAR     58   5  12 E6        30.23S

$$
NMZ519>523-070200-
CENTRAL VALLEYS/CENTRAL HIGHLANDS

CITY           SKY/WX    TMP DP  RH WIND       PRES   REMARKS
ALBUQUERQUE    CLEAR     57   5  12 CALM      30.26S
DOUBLE EAGLE   CLEAR     54  10  17 SE6       30.27F
MORIARTY ARPT  FAIR      53   9  17 W3        30.28S
CLINES CORNERS CLEAR     48  13  24 SW9       30.27S
BELEN          FAIR      55   6  14 SE3       30.26S
SOCORRO          N/A     56   6  13 SE5       30.24S

$$
NMZ524>526-539-540-070200-
SOUTHCENTRAL MOUNTAINS

CITY           SKY/WX    TMP DP  RH WIND       PRES   REMARKS
RUIDOSO        CLEAR     45  18  33 SE10      30.33R

$$
NMZ527>531-070200-
NORTHEAST HIGHLANDS/NORTHEAST PLAINS

CITY           SKY/WX    TMP DP  RH WIND       PRES   REMARKS
LAS VEGAS      CLEAR     46  16  30 S13       30.27R
RATON          CLEAR     49  25  39 CALM      30.25R
CLAYTON        CLEAR     46  28  49 SE8       30.25R

$$
NMZ532>537-070200-
EASTCENTRAL PLAINS

CITY           SKY/WX    TMP DP  RH WIND       PRES   REMARKS
TUCUMCARI      CLEAR     53  24  32 S12       30.23R
CANNON AFB     CLEAR     50  18  28 SW8       30.27R
CLOVIS AIRPORT CLEAR     48  19  32 SW9       30.27S

$$
NMZ028-029-538-070200-
SOUTHEAST PLAINS

CITY           SKY/WX    TMP DP  RH WIND       PRES   REMARKS
ROSWELL        CLEAR     53  17  24 S6        30.27S
ARTESIA        CLEAR     50  18  27 S9        30.29R
CARLSBAD       CLEAR     51  28  41 SE8       30.28S
HOBBS          CLEAR     48  27  43 SE7       30.32R


$$


USA.gov is the U.S. government's official web portal to all federal, state and local government web resources and services.